RH
28 34 37 32 30 24 16 13 11 9 8 8 9 8 7 5 3 2 2 2 3 3 2 3 6 11 14 14 17 15 16 19 22 22 26 33 36 32 27 27 25 26 26 31 28 25 26
31 30 34 34 31 26 21 14 12 11 8 8 10 7 5 3 2 2 2 3 3 3 3 3 6 9 15 16 13 17 16 16 19 20 22 32 35 29 26 24 24 24 25 27 29 27 24
32 31 32 33 36 29 25 17 15 12 10 8 9 8 5 3 3 3 3 3 3 3 4 5 6 9 9 13 13 16 19 20 18 18 20 25 30 28 27 24 24 24 23 24 23 23 22
32 33 34 32 33 33 28 22 15 14 12 8 8 10 7 4 3 4 4 3 3 4 4 5 6 9 8 10 15 14 17 24 20 20 20 22 25 27 30 27 24 24 23 23 24 24 22
28 31 34 34 32 33 30 27 17 15 14 9 8 10 10 6 4 5 5 4 5 5 5 6 6 7 6 6 13 16 15 23 26 20 20 21 21 27 29 28 24 22 22 23 24 24 23
26 27 31 34 36 33 32 30 24 15 16 12 10 12 12 12 7 7 6 8 6 6 7 6 6 5 6 6 11 17 15 20 26 26 21 20 21 24 28 28 26 23 24 23 25 27 24
29 25 30 35 36 39 37 31 30 18 16 15 13 17 17 20 14 10 9 7 8 10 6 9 7 5 5 6 11 18 16 19 24 30 30 26 23 27 31 28 27 24 22 22 27 32 26
32 30 28 32 38 39 38 38 36 29 18 18 17 17 18 23 20 18 13 11 8 10 12 10 7 6 6 6 13 18 16 18 24 31 34 32 28 30 34 30 27 24 24 24 27 32 34
30 31 28 36 42 48 47 40 38 39 27 19 18 19 18 20 23 25 26 21 13 12 16 15 15 10 8 9 15 20 19 20 25 25 31 37 40 40 37 32 27 25 26 28 31 37 45
27 31 31 34 62 52 60 53 40 41 42 28 20 21 20 20 27 31 32 23 16 11 12 11 15 15 12 12 19 20 21 22 24 24 30 35 38 39 39 36 29 24 26 30 38 41 39
27 31 31 33 47 76 72 62 54 40 44 45 30 22 21 20 23 33 33 25 22 11 12 9 10 12 11 15 20 23 21 24 27 26 34 37 48 48 45 39 33 31 30 31 35 48 51
29 27 27 33 39 50 78 69 67 58 45 48 50 34 24 24 25 23 31 30 33 19 18 17 11 12 12 15 18 25 25 24 27 30 37 42 45 45 43 42 38 37 42 37 34 44 47
35 31 26 29 36 40 68 78 65 76 62 52 54 58 43 27 26 27 33 25 28 33 24 20 19 14 17 16 20 25 27 26 28 33 39 45 46 47 46 46 40 41 52 52 50 54 55
37 35 29 28 32 38 48 84 67 72 88 68 62 60 68 55 36 28 26 33 38 33 33 31 29 28 20 28 24 26 30 31 32 39 44 48 52 52 57 54 54 53 54 53 53 55 50
41 38 29 31 30 43 57 64 63 59 77 100 86 74 66 75 74 51 34 30 34 46 57 53 42 37 33 33 43 34 31 33 36 41 47 53 58 61 59 64 61 60 55 50 48 47 46
34 32 30 30 31 41 48 65 70 81 62 85 100 95 86 87 84 89 81 51 36 32 37 52 48 41 35 38 32 47 51 36 36 42 46 56 62 63 57 55 54 56 56 60 63 51 72
40 34 29 32 34 34 33 54 59 73 93 80 89 85 81 98 100 97 98 97 91 60 38 32 33 37 44 45 40 39 36 50 54 46 43 44 48 50 49 49 50 60 64 71 88 76 51
49 44 34 42 42 33 29 36 37 55 64 62 70 74 73 68 67 91 100 100 97 100 95 76 50 36 32 36 38 45 46 41 40 41 47 46 44 46 51 63 63 62 50 43 38 38 45
56 50 36 35 38 36 29 34 42 37 39 50 41 66 77 81 56 54 60 73 96 100 94 100 100 99 79 60 50 38 36 41 44 47 47 43 43 40 41 43 48 52 52 59 58 55 65
54 52 64 83 61 42 37 37 44 58 41 54 37 37 42 66 70 54 47 45 42 68 94 100 100 100 100 100 100 95 82 71 61 49 40 39 44 42 40 42 40 40 38 38 34 34 32
72 76 100 60 60 40 36 35 40 42 44 54 54 50 52 52 44 41 38 37 39 38 34 54 73 88 94 100 100 100 100 100 100 100 100 96 94 87 78 73 72 71 70 56 55 64 50
84 64 60 52 44 35 40 35 34 34 44 40 42 48 53 53 54 44 41 49 51 44 37 33 27 33 42 62 60 77 90 100 100 100 100 100 100 100 100 100 100 100 100 100 100 100 100
94 74 75 66 58 52 46 41 45 32 33 34 39 40 38 35 39 44 47 44 42 45 42 45 40 40 37 38 31 37 36 37 42 47 55 69 71 80 88 87 92 96 94 93 97 99 100
96 100 100 87 53 49 46 50 70 63 51 40 42 43 43 48 47 39 38 33 39 49 38 47 45 38 39 38 44 45 47 42 38 38 38 36 35 33 36 37 36 35 40 40 40 45 53
100 76 88 99 91 76 62 59 47 41 48 46 49 54 49 48 57 63 55 61 60 53 62 63 59 64 40 42 32 34 30 30 32 34 37 35 34 34 35 41 43 37 36 39 35 37 42
99 74 81 76 64 43 45 78 81 76 61 58 62 37 64 57 66 50 53 44 64 76 80 73 73 67 73 84 67 64 55 52 34 36 34 37 44 46 41 42 36 58 84 82 53 44 43
65 67 63 82 63 63 43 44 51 50 58 63 63 56 51 70 68 81 89 83 71 89 71 63 80 64 61 75 86 79 86 98 84 74 81 83 72 56 44 51 55 59 69 74 74 74 64
94 91 63 68 71 63 50 56 58 54 63 61 46 47 61 63 88 86 71 94 100 98 97 94 82 99 100 100 77 69 84 100 100 100 100 100 100 100 84 93 64 58 77 85 65 65 74
91 70 82 62 42 39 60 62 67 65 79 91 65 71 73 92 100 87 89 75 74 100 100 100 100 100 100 100 100 82 67 75 78 86 100 100 100 89 83 80 97 100 95 53 61 83 97
Wind_Speed
52 54 58 64 71 76 83 82 73 64 55 41 36 27 20 17 18 18 25 30 39 52 63 72 83 93 99 111 103 108 107 101 95 88 81 76 71 66 61 57 55 51 48 47 41 38 35
52 55 56 63 70 75 82 87 78 69 60 44 37 30 23 9 6 11 17 25 34 43 53 62 73 90 103 107 108 106 107 104 98 92 85 80 77 69 63 62 57 55 52 49 46 43 40
53 56 58 62 69 74 79 85 82 72 63 50 40 33 25 11 5 5 10 19 27 38 46 58 75 86 94 102 111 104 106 106 101 96 91 83 79 73 68 65 62 59 55 54 50 46 43
54 56 59 62 65 71 77 82 86 76 68 56 45 37 32 22 16 13 9 12 27 38 50 61 74 86 94 101 105 108 102 104 103 98 94 89 81 77 71 69 66 61 57 56 54 51 47
54 57 59 62 65 68 74 79 84 82 73 61 52 42 37 34 27 20 15 10 18 32 48 59 67 76 84 91 102 107 103 98 101 100 95 90 83 81 75 70 68 62 60 59 57 55 52
55 57 59 60 63 66 72 76 80 82 76 64 58 55 46 40 31 25 20 13 10 25 38 52 61 70 75 80 95 102 103 96 94 97 96 91 87 84 79 73 67 65 62 62 59 57 55
52 56 56 57 61 63 67 73 76 81 81 73 64 64 56 47 41 33 26 19 11 8 30 42 49 56 67 77 88 97 101 96 90 91 91 90 88 84 79 74 69 67 64 63 61 59 58
50 51 55 56 59 60 63 68 73 77 82 79 70 65 60 52 45 40 35 29 21 12 12 23 42 47 57 71 86 91 98 95 86 83 85 84 84 81 79 76 72 67 67 64 63 62 61
48 49 52 52 53 57 59 63 68 73 77 81 76 68 64 58 51 46 40 33 27 19 10 16 25 35 46 62 81 87 91 93 87 81 78 79 80 79 76 75 73 69 67 66 64 63 61
45 47 49 49 46 52 54 58 61 67 72 76 80 73 66 64 61 53 48 38 31 23 15 12 21 29 43 60 76 84 86 91 89 83 77 75 75 75 74 72 71 68 67 66 65 63 62
43 45 44 47 43 44 48 52 56 60 65 71 74 78 72 65 66 63 56 49 39 32 22 18 22 29 39 54 68 77 81 85 88 84 77 72 70 69 69 69 69 67 65 65 65 61 59
41 46 45 43 42 41 41 45 50 54 57 63 68 72 77 74 67 63 64 57 46 37 32 24 21 25 34 49 61 71 76 80 84 84 80 73 69 68 68 68 68 67 64 62 61 61 59
38 44 41 40 38 39 35 37 43 48 51 55 60 65 69 72 71 66 62 61 60 52 37 28 25 23 27 40 50 62 71 75 79 82 79 74 70 67 65 64 63 62 60 60 60 64 64
39 40 37 39 38 35 34 32 36 42 45 47 52 56 60 64 67 68 65 61 59 59 55 41 27 24 23 31 43 52 59 68 74 78 79 76 72 67 63 62 61 63 64 65 65 67 69
33 34 35 35 34 30 30 28 30 34 39 42 44 48 51 55 58 61 63 62 57 52 49 44 41 24 20 21 29 43 53 61 68 74 76 76 73 70 68 67 66 67 67 69 69 70 72
32 34 34 30 31 25 25 27 28 30 32 35 39 41 44 47 49 51 53 55 57 54 47 42 38 33 29 13 19 30 39 50 58 66 70 71 71 71 69 68 68 68 69 71 73 74 74
33 34 28 27 25 22 26 25 25 25 28 29 32 35 35 38 41 43 44 45 46 46 47 46 40 33 28 23 16 8 21 35 46 56 61 64 65 65 65 66 67 67 69 72 74 77 79
27 33 25 22 22 23 20 24 23 21 22 25 26 26 29 29 31 31 34 36 35 36 36 36 36 36 33 26 19 13 10 14 23 33 45 51 56 58 60 62 65 68 72 74 74 72 73
19 24 27 27 23 21 21 18 21 23 22 23 22 21 22 21 23 27 26 26 27 27 26 27 26 25 24 23 21 19 14 8 8 12 19 26 32 37 43 48 52 55 57 57 59 61 65
18 16 24 26 26 20 22 26 24 23 22 23 25 25 22 18 17 18 20 19 22 21 19 17 17 16 15 13 11 9 7 4 2 1 5 9 14 18 23 28 31 34 37 38 38 41 40
22 13 23 22 22 21 22 21 24 26 26 21 21 24 25 27 25 23 22 17 15 12 14 10 11 11 10 8 6 6 6 7 9 12 15 17 20 23 26 29 32 35 39 40 41 46 42
21 23 21 22 24 21 14 21 21 26 26 28 25 26 23 23 23 25 27 25 23 22 18 15 12 10 11 11 13 14 16 16 18 20 22 25 27 29 33 35 37 42 47 45 48 53 50
27 26 23 24 26 25 26 27 28 26 26 25 27 24 22 23 21 21 22 24 22 19 22 22 21 20 19 19 17 19 21 25 28 30 34 36 36 38 41 43 43 45 52 54 56 58 59
32 31 33 27 27 29 29 35 35 29 36 33 28 26 24 22 19 21 24 26 26 26 28 27 22 19 22 24 23 25 27 28 31 35 36 37 41 42 42 45 46 48 52 57 61 66 70
40 34 34 31 32 34 38 35 33 36 41 38 40 36 32 31 27 26 26 27 28 29 31 33 31 32 39 37 30 38 35 34 38 41 45 47 49 46 48 50 50 52 58 61 61 56 62
41 38 38 35 36 37 39 40 39 41 46 49 40 41 39 37 37 34 34 36 34 34 36 37 38 40 42 44 48 48 51 53 53 53 54 53 55 56 56 58 58 61 64 69 72 72 74
45 41 40 41 39 40 41 39 42 43 42 47 46 44 44 49 44 46 46 44 43 40 41 44 44 46 46 48 51 55 57 58 60 62 64 67 68 70 72 69 65 67 70 74 79 82 84
54 55 51 45 50 46 47 49 50 50 48 49 48 50 51 51 52 51 51 53 54 54 54 56 55 56 51 52 57 60 62 64 68 69 72 73 76 78 82 83 82 79 81 84 86 86 87
61 59 60 56 51 58 58 58 58 58 58 55 57 57 56 59 58 58 60 59 61 63 65 66 67 68 68 68 69 70 71 69 69 71 78 81 81 85 90 89 89 91 93 95 94 95 97
Wind_Direction
4 3 2 3 5 6 7 11 11 10 9 9 6 351 320 313 267 240 225 219 218 217 216 214 212 209 208 210 210 213 213 216 215 217 217 218 221 222 227 228 231 234 235 233 232 236 237
4 5 6 5 7 9 9 13 13 14 14 16 18 6 357 357 280 219 198 197 199 205 208 206 205 208 206 207 206 208 211 213 216 216 218 216 219 223 228 229 231 235 237 236 236 238 242
5 6 8 8 9 11 13 14 16 16 16 20 22 20 21 47 85 137 175 186 186 190 195 195 199 205 207 205 202 205 207 211 213 216 217 218 218 221 226 230 232 234 237 240 241 242 244
6 7 8 11 11 12 15 17 18 19 19 21 27 31 31 41 75 81 115 170 177 180 187 191 196 201 203 201 199 204 204 209 212 214 217 218 219 221 225 229 230 232 236 240 242 245 246
7 9 8 9 12 14 16 19 21 22 21 23 33 36 36 42 62 77 89 137 177 186 184 188 195 203 203 201 197 200 203 206 210 214 216 219 220 222 225 228 231 232 236 240 242 246 248
9 10 9 9 12 14 16 19 23 25 27 27 36 40 39 42 50 70 77 94 154 189 188 191 195 200 200 200 197 198 202 204 208 211 215 218 221 223 226 228 232 232 234 238 242 246 250
7 6 12 10 11 14 16 20 24 27 30 32 36 42 42 42 44 56 70 73 100 152 197 193 200 199 199 193 196 197 200 203 206 208 212 216 220 223 226 229 231 232 235 238 241 246 250
4 7 9 12 11 14 18 21 24 29 32 35 37 41 47 46 49 52 59 62 78 108 173 202 201 198 196 193 194 196 198 202 204 208 211 215 220 223 226 229 231 232 235 238 241 245 249
6 8 8 12 12 15 17 22 25 29 34 36 39 43 47 52 52 53 54 55 67 86 130 181 198 197 190 192 194 195 199 201 204 208 211 215 219 224 227 230 232 232 234 238 241 245 249
4 7 9 11 12 15 18 20 25 29 34 37 41 43 46 51 54 54 55 55 63 74 100 150 172 191 183 187 192 195 197 202 206 208 211 215 219 223 226 229 232 232 234 238 241 246 250
5 10 12 10 11 16 18 21 24 28 33 37 40 44 46 51 53 55 55 55 60 72 82 119 153 171 177 184 189 196 197 201 206 209 212 215 218 223 227 229 232 236 237 240 243 247 253
4 4 9 13 7 10 18 22 24 27 31 37 40 43 46 46 51 53 56 58 58 64 72 86 122 154 170 181 187 194 197 200 205 209 212 215 218 222 225 229 232 236 241 244 247 252 256
359 2 6 10 11 9 13 20 26 27 29 34 39 44 46 48 49 52 53 54 58 62 63 82 100 131 157 176 187 192 196 200 204 208 213 217 220 224 227 232 236 240 245 248 251 254 256
357 360 8 7 9 8 12 18 26 29 31 32 37 41 46 47 50 51 52 56 55 54 56 60 83 108 135 165 182 191 198 201 204 209 214 218 222 226 230 234 238 241 245 249 252 255 258
1 2 6 4 9 7 3 11 20 29 35 33 35 37 43 47 48 50 54 55 57 59 58 58 55 72 107 150 173 186 194 202 206 210 215 219 223 227 231 236 241 245 249 253 256 258 261
5 360 3 7 10 9 4 5 13 23 29 33 34 37 40 43 48 50 51 54 57 59 61 64 66 66 67 82 164 182 195 202 208 213 217 220 224 229 234 239 243 248 252 254 257 260 261
357 1 2 9 13 20 15 11 10 16 23 23 25 27 37 43 44 46 49 51 54 57 60 63 66 68 72 82 90 150 210 208 212 216 221 224 227 232 237 241 245 248 252 255 258 261 265
1 360 6 15 7 11 24 25 18 18 19 14 22 23 27 38 42 45 45 46 51 53 57 60 63 65 70 76 86 103 147 196 218 227 229 230 233 236 239 244 248 251 256 261 267 270 273
358 6 11 16 9 12 10 21 22 23 25 21 15 17 22 32 41 40 37 39 45 48 51 53 54 59 64 68 70 75 88 119 183 217 232 238 244 247 251 255 258 261 264 267 268 270 271
347 350 0 1 2 5 20 19 19 21 25 26 22 22 13 9 18 25 31 39 35 32 37 46 53 51 46 44 54 63 69 68 63 268 247 245 246 253 254 257 261 264 265 268 268 267 267
328 334 339 350 360 4 13 9 7 8 15 16 16 15 16 15 13 13 9 8 3 9 19 25 19 6 5 14 6 341 314 285 266 259 258 256 258 260 259 261 263 266 266 263 265 268 266
303 318 329 335 354 355 349 358 360 0 6 360 3 19 17 15 11 16 12 9 6 7 354 347 351 334 319 295 299 296 290 278 269 270 271 269 268 267 270 270 274 278 279 278 278 279 279
287 294 303 313 322 327 331 331 336 345 347 353 0 357 10 10 6 6 360 5 6 352 356 345 345 335 329 320 314 290 292 285 281 280 275 269 269 270 272 270 269 273 277 277 274 275 276
281 286 288 294 308 312 319 321 316 326 327 332 334 343 346 347 336 340 341 344 346 347 350 347 339 325 318 310 314 308 303 297 294 290 291 283 276 271 272 275 278 279 283 286 283 279 276
281 282 284 289 298 307 309 309 308 315 320 322 323 320 324 327 327 329 333 331 331 329 321 325 326 320 325 327 314 311 320 313 303 293 291 291 289 284 281 281 285 286 288 286 287 288 288
270 281 282 284 292 302 303 301 299 304 309 312 306 311 309 309 308 314 319 320 317 316 316 318 317 320 312 309 311 313 313 313 317 312 310 305 298 295 289 287 285 288 289 287 290 290 292
269 274 280 279 283 295 297 298 299 301 307 311 307 305 307 306 306 299 301 303 306 307 309 311 308 310 309 308 307 306 303 303 302 304 303 300 303 304 297 292 288 285 284 284 287 290 289
273 275 274 274 279 282 288 291 292 291 294 299 304 306 299 301 300 302 301 297 295 296 298 299 303 301 300 298 305 305 300 298 295 295 293 295 295 296 297 295 294 288 289 288 287 288 288
268 271 271 275 276 279 279 282 287 291 289 289 297 298 301 295 296 299 298 301 299 295 293 294 294 297 296 298 300 304 302 297 290 291 290 290 292 293 296 292 290 290 288 287 287 287 288